Weather History for Smyrna, TN

Change the Weather History Date:

Friday, March 15, 2013

  Actual Average Record
Temperature  
Mean Temperature 53 °F -  
Max Temperature 75 °F 56 °F 86 °F (2012)
Min Temperature 32 °F 40 °F 28 °F (1997)
Degree Days  
Heating Degree Days 12    
Growing Degree Days 3 (Base 50)    
Moisture  
Dew Point 40 °F    
Average Humidity 62    
Maximum Humidity 100    
Minimum Humidity 33    
Precipitation  
Precipitation 0.00 in - - ()
Sea Level Pressure  
Sea Level Pressure 30.06 in    
Wind  
Wind Speed 5 mph (SW)    
Max Wind Speed 17 mph    
Max Gust Speed 23 mph    
Visibility 10 miles    
Events      
Averages and records for this station are not official NWS values.
T = Trace of Precipitation, MM = Missing Value Source: NWS Daily Summary

Daily Weather History Graph

Daily Weather History Graph

Search for Another Location

Airport:

Trip Planner

Search our weather history database for the weather conditions in past years. The results will help you decide how hot, cold, wet, or windy it might be!

Date:

Astronomy

Mar. 15, 2013 Rise Set
Actual Time 6:56 AM CDT 6:53 PM CDT
Civil Twilight 6:30 AM CDT 7:19 PM CDT
Nautical Twilight 6:01 AM CDT 7:49 PM CDT
Astronomical Twilight 5:31 AM CDT 8:19 PM CDT
Moon 8:54 AM CDT (3/15) 10:58 PM CDT (3/15)
Length of Visible Light 12h 48m
Length of Day
11h 57m
Waxing Crescent, 15% of the Moon is Illuminated
Mar 15
Waxing Crescent
Mar 19
First Quarter
Mar 27
Full
Apr 2
Last Quarter
Apr 10
New

Hourly Weather History & Observations

Time (CDT) Temp. Windchill Dew Point Humidity Pressure Visibility Wind Dir Wind Speed Gust Speed Precip Events Conditions
12:56 AM 34.9 °F - 34.0 °F 97% 30.26 in 10.0 mi Calm Calm - N/A   Clear
1:56 AM 34.0 °F - 32.9 °F 96% 30.24 in 8.0 mi Calm Calm - N/A   Clear
2:56 AM 32.0 °F - 32.0 °F 100% 30.22 in 4.0 mi Calm Calm - N/A   Clear
3:56 AM 32.9 °F - 32.9 °F 100% 30.18 in 6.0 mi Calm Calm - N/A   Clear
4:56 AM 34.0 °F - 32.9 °F 96% 30.16 in 10.0 mi Calm Calm - N/A   Clear
5:56 AM 32.0 °F 26.4 °F 31.1 °F 96% 30.16 in 10.0 mi SSE 5.8 mph - N/A   Clear
6:56 AM 32.9 °F - 31.1 °F 93% 30.15 in 10.0 mi Calm Calm - N/A   Clear
7:56 AM 36.0 °F 31.1 °F 32.0 °F 86% 30.15 in 10.0 mi SSE 5.8 mph - N/A   Clear
8:56 AM 46.9 °F - 36.0 °F 66% 30.14 in 10.0 mi South 8.1 mph - N/A   Clear
9:56 AM 54.9 °F - 39.9 °F 57% 30.12 in 10.0 mi SW 5.8 mph - N/A   Clear
10:56 AM 59.9 °F - 41.0 °F 50% 30.11 in 10.0 mi SW 8.1 mph - N/A   Clear
11:56 AM 63.9 °F - 43.9 °F 48% 30.08 in 10.0 mi South 10.4 mph - N/A   Clear
12:56 PM 68.9 °F - 43.9 °F 40% 30.05 in 10.0 mi SW 11.5 mph - N/A   Clear
1:56 PM 72.0 °F - 45.0 °F 38% 30.01 in 10.0 mi West 11.5 mph - N/A   Clear
2:56 PM 74.8 °F - 45.9 °F 36% 29.98 in 10.0 mi West 15.0 mph 21.9 mph N/A   Clear
3:56 PM 74.8 °F - 43.9 °F 33% 29.96 in 10.0 mi WNW 17.3 mph - N/A   Partly Cloudy
4:56 PM 74.8 °F - 45.0 °F 34% 29.95 in 10.0 mi West 16.1 mph 23.0 mph N/A   Clear
5:56 PM 73.9 °F - 45.0 °F 35% 29.93 in 10.0 mi WSW 13.8 mph 19.6 mph N/A   Clear
6:56 PM 72.0 °F - 45.0 °F 38% 29.93 in 10.0 mi SW 9.2 mph - N/A   Clear
7:56 PM 68.9 °F - 45.0 °F 42% 29.93 in 10.0 mi SW 5.8 mph - N/A   Clear
8:56 PM 64.9 °F - 45.0 °F 48% 29.92 in 10.0 mi SSW 4.6 mph - N/A   Clear
9:56 PM 64.9 °F - 45.0 °F 48% 29.93 in 10.0 mi Calm Calm - N/A   Clear
10:56 PM 68.0 °F - 45.0 °F 43% 29.92 in 10.0 mi WSW 15.0 mph - N/A   Clear